Flag for Germany Weather past 2 weeks in Dorsten, North Rhine-Westphalia, Germany

Now
56 °F

Overcast.


Feels Like: 55 °F
Forecast: 48 / 62 °F
Wind: 5 mph from South

Location: Essen

Current Time: May 27, 2015 at 11:00:17 PM

Latest Report: May 27, 2015 at 10:00 PM


Visibility: 25 mi

Pressure: 30.10 "Hg

Humidity: 58%

Dew point: 41 °F

Location of DorstenLocation

Historic Weather in Dorsten — Graph

°F

Dorsten temperature yesterday

Maximum temperature yesterday: 57 °F (at 5:00 PM)
Minimum temperature yesterday: 48 °F (at 5:00 AM)
Average temperature yesterday: 52 °F

Past Weeks' High & Low Weather Summary

 TemperatureHumidityPressure
High67 °F (May 22, 4:00 PM)100% (May 16, 4:00 PM)30.34 "Hg (May 16, 4:00 PM)
Low42 °F (May 16, 6:00 AM)37% (May 13, 6:00 PM)29.64 "Hg (May 18, 9:00 PM)
Average54 °F69%30.08 "Hg
* Reported May 12 10:00 PM — May 27 10:00 PM, Dorsten, Weather by CustomWeather, © 2015

Note: Actual official high and low records may vary slightly from our data, if they occured in-between our weather recording intervals... More about our weather records

Advertising

Dorsten weather history for previous 24 hours

 ConditionsComfort  
Time TempWeatherWind HumidityBarometerVisibility
10:00 PM
Wed, May 27
56 °FOvercast.5 mph58%30.10 "Hg25 mi
9:00 PM56 °FPartly sunny.3 mph61%30.11 "Hg25 mi
8:00 PM59 °FPartly sunny.3 mph54%30.12 "Hg25 mi
7:00 PM60 °FScattered clouds.5 mph51%30.14 "Hg19 mi
6:00 PM60 °FScattered clouds.3 mph55%30.16 "Hg25 mi
5:00 PM60 °FOvercast.3 mph49%30.18 "Hg25 mi
4:00 PM59 °FOvercast.3 mph51%30.19 "HgN/A
3:00 PM59 °FPartly sunny.3 mph50%30.21 "Hg19 mi
2:00 PM59 °FOvercast.2 mph51%30.23 "Hg25 mi
1:00 PM57 °FOvercast.2 mph53%30.24 "Hg31 mi
12:00 PM56 °FOvercast.2 mph52%30.26 "Hg28 mi
11:00 AM58 °FOvercast.1 mph57%30.26 "Hg28 mi
10:00 AM53 °FOvercast.2 mph63%30.27 "Hg25 mi
9:00 AM52 °FOvercast.2 mph73%30.27 "Hg22 mi
8:00 AM49 °FOvercast.1 mph86%30.26 "Hg19 mi
7:00 AM47 °FOvercast.1 mph88%30.26 "Hg19 mi
6:00 AM47 °FOvercast.1 mph86%30.26 "Hg22 mi
5:00 AM47 °FOvercast.No wind82%30.27 "Hg25 mi
4:00 AM47 °FOvercast.1 mph82%30.27 "Hg22 mi
3:00 AM48 °FOvercast.2 mph78%30.25 "Hg22 mi
2:00 AM47 °FOvercast.2 mph80%30.26 "Hg22 mi
1:00 AM46 °FPassing clouds.2 mph82%30.25 "Hg19 mi
12:00 AM47 °FClear.2 mph79%30.24 "Hg22 mi
11:00 PM
Tue, May 26
48 °FClear.2 mph76%30.24 "Hg25 mi
Weather by CustomWeather, © 2015

See weather overviewHow to use our weather pages